| time (UTC) | temp C | wind direction | speed KPH | gust KPH | rain 1hr cm | rain 24hr cm | rain mn cm | humidity % | barometer mb |
| 20260507135324 | 15 | 210 | 1.6 | 4.8 | 0.00 | 0.00 | 0.00 | 51 | 1014.9 |
| 20260507134829 | 15 | 269 | 0.0 | 4.8 | 0.00 | 0.00 | 0.00 | 52 | 1014.9 |
| 20260506215323 | -17 | 0.0 | 0.0 | 0.00 | 0.00 | 0.00 | 1014.9 | ||
| 20260506214824 | -17 | 0.0 | 0.0 | 0.00 | 0.00 | 0.00 | 1014.9 | ||
| 20260506214334 | -17 | 0.0 | 0.0 | 0.00 | 0.00 | 0.00 | 1014.9 | ||
| 20260506213333 | -17 | 0.0 | 0.0 | 0.00 | 0.00 | 0.00 | 1014.7 | ||
| 20260506212820 | -17 | 0.0 | 0.0 | 0.00 | 0.00 | 0.00 | 1014.6 | ||
| 20260506212323 | -17 | 0.0 | 0.0 | 0.00 | 0.00 | 0.00 | 1014.6 | ||
| 20260506210821 | -17 | 0.0 | 0.0 | 0.00 | 0.00 | 0.00 | 1014.6 | ||
| 20260506210345 | -17 | 0.0 | 0.0 | 0.00 | 0.00 | 0.00 | 1014.5 | ||
| 20260506205848 | -17 | 0.0 | 0.0 | 0.00 | 0.00 | 0.00 | 1014.4 | ||
| 20260506203837 | -17 | 0.0 | 0.0 | 0.00 | 0.00 | 0.00 | 1014.4 | ||
| 20260506203346 | -17 | 0.0 | 0.0 | 0.00 | 0.00 | 0.00 | 1014.3 | ||
| 20260506202349 | 9 | 127 | 0.0 | 4.8 | 0.00 | 0.00 | 0.00 | 68 | 1014.3 |
| 20260506201816 | 9 | 127 | 0.0 | 4.8 | 0.00 | 0.00 | 0.00 | 68 | 1014.3 |
| 20260506201346 | 9 | 120 | 1.6 | 4.8 | 0.00 | 0.00 | 0.00 | 67 | 1014.2 |
| 20260506200854 | 9 | 143 | 1.6 | 3.2 | 0.00 | 0.00 | 0.00 | 66 | 1014.1 |
| 20260506200336 | 9 | 132 | 0.0 | 1.6 | 0.00 | 0.00 | 0.00 | 66 | 1014.1 |
| 20260506195840 | 9 | 116 | 0.0 | 1.6 | 0.00 | 0.00 | 0.00 | 65 | 1014.0 |
| 20260506195321 | 10 | 134 | 0.0 | 1.6 | 0.00 | 0.00 | 0.00 | 64 | 1014.1 |
| 20260506194848 | 10 | 133 | 0.0 | 1.6 | 0.00 | 0.00 | 0.00 | 64 | 1014.1 |
| 20260506194329 | 10 | 133 | 0.0 | 1.6 | 0.00 | 0.00 | 0.00 | 63 | 1013.9 |
| 20260506193835 | 10 | 132 | 0.0 | 1.6 | 0.00 | 0.00 | 0.00 | 63 | 1013.8 |
| 20260506193318 | 10 | 131 | 0.0 | 3.2 | 0.00 | 0.00 | 0.00 | 62 | 1013.8 |
| 20260506192819 | 10 | 131 | 0.0 | 3.2 | 0.00 | 0.00 | 0.00 | 62 | 1013.8 |
| 20260506192321 | 11 | 127 | 1.6 | 6.4 | 0.00 | 0.00 | 0.00 | 61 | 1013.8 |
| 20260506191829 | 11 | 127 | 1.6 | 6.4 | 0.00 | 0.00 | 0.00 | 61 | 1013.8 |
| 20260506191311 | 11 | 125 | 0.0 | 6.4 | 0.00 | 0.00 | 0.00 | 61 | 1013.7 |
| 20260506190826 | 11 | 116 | 1.6 | 6.4 | 0.00 | 0.00 | 0.00 | 60 | 1013.7 |
| 20260506190314 | 11 | 122 | 1.6 | 6.4 | 0.00 | 0.00 | 0.00 | 59 | 1013.6 |
| 20260506185844 | 11 | 115 | 3.2 | 6.4 | 0.00 | 0.00 | 0.00 | 59 | 1013.6 |
| 20260506185345 | 11 | 146 | 1.6 | 6.4 | 0.00 | 0.00 | 0.00 | 58 | 1013.7 |
| 20260506184833 | 11 | 134 | 1.6 | 8.0 | 0.00 | 0.00 | 0.00 | 58 | 1013.7 |
| 20260506184315 | 12 | 110 | 1.6 | 8.0 | 0.00 | 0.00 | 0.00 | 57 | 1013.6 |
| 20260506183824 | 12 | 115 | 0.0 | 8.0 | 0.00 | 0.00 | 0.00 | 57 | 1013.7 |
| 20260506183334 | 12 | 146 | 1.6 | 6.4 | 0.00 | 0.00 | 0.00 | 56 | 1013.6 |
| 20260506182844 | 12 | 125 | 1.6 | 6.4 | 0.00 | 0.00 | 0.00 | 56 | 1013.6 |
| 20260506182324 | 12 | 130 | 1.6 | 8.0 | 0.00 | 0.00 | 0.00 | 56 | 1013.5 |
| 20260506181832 | 12 | 112 | 1.6 | 8.0 | 0.00 | 0.00 | 0.00 | 55 | 1013.5 |
| 20260506181334 | 12 | 129 | 3.2 | 8.0 | 0.00 | 0.00 | 0.00 | 55 | 1013.5 |
| 20260506180821 | 12 | 132 | 3.2 | 8.0 | 0.00 | 0.00 | 0.00 | 55 | 1013.4 |
| 20260506180346 | 12 | 122 | 0.0 | 6.4 | 0.00 | 0.00 | 0.00 | 55 | 1013.3 |
| 20260506175851 | 12 | 129 | 3.2 | 6.4 | 0.00 | 0.00 | 0.00 | 54 | 1013.3 |
| 20260506175312 | 12 | 143 | 1.6 | 8.0 | 0.00 | 0.00 | 0.00 | 54 | 1013.2 |
| 20260506174842 | 12 | 126 | 3.2 | 8.0 | 0.00 | 0.00 | 0.00 | 53 | 1013.2 |
| 20260506174323 | 13 | 130 | 1.6 | 8.0 | 0.00 | 0.00 | 0.00 | 53 | 1013.2 |
| 20260506173832 | 13 | 138 | 4.8 | 9.7 | 0.00 | 0.00 | 0.00 | 51 | 1013.2 |
| 20260506173316 | 13 | 114 | 3.2 | 9.7 | 0.00 | 0.00 | 0.00 | 51 | 1013.2 |
| 20260506172817 | 13 | 110 | 3.2 | 9.7 | 0.00 | 0.00 | 0.00 | 51 | 1013.2 |
| 20260506172346 | 13 | 127 | 3.2 | 8.0 | 0.00 | 0.00 | 0.00 | 50 | 1013.1 |
| 20260506171827 | 13 | 104 | 3.2 | 11.3 | 0.00 | 0.00 | 0.00 | 51 | 1013.1 |
| 20260506171335 | 13 | 91 | 1.6 | 11.3 | 0.00 | 0.00 | 0.00 | 50 | 1013.2 |
| 20260506170817 | 13 | 112 | 4.8 | 9.7 | 0.00 | 0.00 | 0.00 | 49 | 1013.1 |
| 20260506170317 | 13 | 152 | 3.2 | 9.7 | 0.00 | 0.00 | 0.00 | 48 | 1013.1 |
| 20260506165824 | 13 | 68 | 3.2 | 8.0 | 0.00 | 0.00 | 0.00 | 47 | 1013.0 |
| 20260506165326 | 13 | 51 | 1.6 | 8.0 | 0.00 | 0.00 | 0.00 | 47 | 1013.1 |
| 20260506164828 | 13 | 82 | 1.6 | 9.7 | 0.00 | 0.00 | 0.00 | 48 | 1013.0 |
| 20260506164337 | 13 | 83 | 4.8 | 11.3 | 0.00 | 0.00 | 0.00 | 47 | 1013.1 |
| 20260506163819 | 13 | 89 | 3.2 | 11.3 | 0.00 | 0.00 | 0.00 | 48 | 1013.1 |
| 20260506163322 | 14 | 103 | 4.8 | 9.7 | 0.00 | 0.00 | 0.00 | 47 | 1013.1 |
| 20260506162830 | 14 | 123 | 3.2 | 16.1 | 0.00 | 0.00 | 0.00 | 47 | 1013.1 |
| 20260506162312 | 14 | 134 | 4.8 | 16.1 | 0.00 | 0.00 | 0.00 | 47 | 1013.1 |
| 20260506161834 | 15 | 106 | 3.2 | 8.0 | 0.00 | 0.00 | 0.00 | 46 | 1013.0 |
| 20260506161322 | 15 | 120 | 3.2 | 19.3 | 0.00 | 0.00 | 0.00 | 46 | 1013.0 |
| 20260506160824 | 15 | 118 | 4.8 | 19.3 | 0.00 | 0.00 | 0.00 | 46 | 1012.9 |
| 20260506160314 | 15 | 4 | 1.6 | 11.3 | 0.00 | 0.00 | 0.00 | 46 | 1012.9 |
| 20260506155829 | 15 | 76 | 3.2 | 12.9 | 0.00 | 0.00 | 0.00 | 46 | 1013.0 |
| 20260506155338 | 15 | 79 | 4.8 | 12.9 | 0.00 | 0.00 | 0.00 | 46 | 1012.9 |
| 20260506154818 | 15 | 75 | 3.2 | 9.7 | 0.00 | 0.00 | 0.00 | 47 | 1013.0 |
| 20260506154319 | 14 | 110 | 3.2 | 11.3 | 0.00 | 0.00 | 0.00 | 47 | 1013.0 |
| 20260506153825 | 14 | 134 | 3.2 | 11.3 | 0.00 | 0.00 | 0.00 | 47 | 1013.0 |
| 20260506153328 | 15 | 117 | 4.8 | 9.7 | 0.00 | 0.00 | 0.00 | 47 | 1013.1 |
| 20260506152828 | 15 | 109 | 3.2 | 11.3 | 0.00 | 0.00 | 0.00 | 48 | 1013.0 |
| 20260506152319 | 14 | 100 | 4.8 | 14.5 | 0.00 | 0.00 | 0.00 | 47 | 1013.1 |
| 20260506151819 | 15 | 145 | 3.2 | 14.5 | 0.00 | 0.00 | 0.00 | 48 | 1013.1 |
| 20260506151328 | 15 | 131 | 4.8 | 20.9 | 0.00 | 0.00 | 0.00 | 48 | 1013.2 |
| 20260506150857 | 15 | 70 | 6.4 | 20.9 | 0.00 | 0.00 | 0.00 | 48 | 1013.2 |
| 20260506150315 | 15 | 68 | 6.4 | 12.9 | 0.00 | 0.00 | 0.00 | 47 | 1013.2 |
| 20260506145816 | 15 | 85 | 4.8 | 14.5 | 0.00 | 0.00 | 0.00 | 48 | 1013.1 |
| 20260506145325 | 14 | 81 | 6.4 | 14.5 | 0.00 | 0.00 | 0.00 | 48 | 1013.3 |
| 20260506144834 | 14 | 43 | 4.8 | 11.3 | 0.00 | 0.00 | 0.00 | 49 | 1013.2 |
| 20260506144315 | 14 | 72 | 1.6 | 11.3 | 0.00 | 0.00 | 0.00 | 49 | 1013.2 |
| 20260506143817 | 15 | 55 | 4.8 | 11.3 | 0.00 | 0.00 | 0.00 | 49 | 1013.3 |
| 20260506143347 | 15 | 95 | 3.2 | 8.0 | 0.00 | 0.00 | 0.00 | 50 | 1013.3 |
| 20260506142827 | 14 | 125 | 3.2 | 11.3 | 0.00 | 0.00 | 0.00 | 49 | 1013.3 |
| 20260506142337 | 15 | 67 | 4.8 | 11.3 | 0.00 | 0.00 | 0.00 | 49 | 1013.4 |
| 20260506141837 | 15 | 191 | 3.2 | 11.3 | 0.00 | 0.00 | 0.00 | 50 | 1013.3 |
| 20260506141324 | 14 | 120 | 4.8 | 11.3 | 0.00 | 0.00 | 0.00 | 50 | 1013.4 |
| 20260506140826 | 13 | 106 | 3.2 | 11.3 | 0.00 | 0.00 | 0.00 | 52 | 1013.3 |
| 20260506140325 | 13 | 72 | 3.2 | 16.1 | 0.00 | 0.00 | 0.00 | 51 | 1013.4 |
| 20260506135833 | 13 | 111 | 4.8 | 16.1 | 0.00 | 0.00 | 0.00 | 51 | 1013.4 |